[Iaude] MPEC W07: 2016 VV5 [a=1.44,e=0.49,i=10.4,H=21.9,PHA]

mpec at si.edu mpec at si.edu
Thu Nov 17 22:13:22 EST 2016


M.P.E.C. 2016-W07                                Issued 2016 Nov. 18, 03:10 UT
 
     The Minor Planet Electronic Circulars contain information on unusual
         minor planets and routine data on comets.  They are published
    on behalf of Division F of the International Astronomical Union by the
          Minor Planet Center, Smithsonian Astrophysical Observatory,
                          Cambridge, MA 02138, U.S.A.

             Prepared using the Tamkin Foundation Computer Network

                              MPC at CFA.HARVARD.EDU
            URL http://www.minorplanetcenter.net/    ISSN 1523-6714


                                   2016 VV5
 
Observations:
     K16V05V* C2016 11 11.21310 03 06 45.36 +48 10 39.4                qEW007G96
     K16V05V  C2016 11 11.21747 03 06 44.21 +48 10 32.7          20.9 VqEW007G96
     K16V05V  C2016 11 11.22181 03 06 42.92 +48 10 26.3          20.5 VqEW007G96
     K16V05V  C2016 11 11.22617 03 06 41.68 +48 10 19.1          21.1 VqEW007G96
     K16V05V  C2016 11 11.26515 03 06 30.63 +48 09 20.1                qEW007G96
     K16V05V  C2016 11 11.26760 03 06 30.05 +48 09 14.4          20.1 VqEW007G96
     K16V05V  C2016 11 11.27084 03 06 29.03 +48 09 11.3          20.9 VqEW007G96
     K16V05V  C2016 11 11.27320 03 06 28.40 +48 09 06.5          20.9 VqEW007G96
     K16V05V ^C2016 11 11.47396 03 05 32.41 +48 03 39.5                oEW007695
     K16V05V ^C2016 11 11.47656 03 05 31.68 +48 03 35.0          20.4 RoEW007695
     K16V05V  C2016 11 12.09713203 02 58.27 +47 47 16.2          20.0 GUEW007H01
     K16V05V  C2016 11 12.10032503 02 57.44 +47 47 11.3          20.0 GUEW007H01
     K16V05V  C2016 11 12.10726103 02 55.67 +47 47 01.2          20.0 GUEW007H01
     K16V05V  C2016 11 12.11905803 02 52.62 +47 46 43.9          20.2 GUEW007H01
     K16V05V KC2016 11 12.79238 03 00 08.76 +47 29 00.9          20.1 RoEW007K51
     K16V05V KC2016 11 12.79312 03 00 08.54 +47 28 59.7          20.2 RoEW007K51
     K16V05V KC2016 11 12.79571 03 00 07.85 +47 28 55.8          20.2 RoEW007K51
     K16V05V  C2016 11 13.20671602 58 31.52 +47 18 22.9          20.1 GUEW007H01
     K16V05V  C2016 11 13.21069102 58 30.56 +47 18 16.9          20.0 GUEW007H01
     K16V05V  C2016 11 13.22330002 58 27.46 +47 17 57.7          19.9 GUEW007H01
     K16V05V  C2016 11 13.23470002 58 24.67 +47 17 40.3          20.0 GUEW007H01
     K16V05V  C2016 11 15.12192402 51 45.00 +46 28 36.6          20.4 GUEW007H01
     K16V05V  C2016 11 15.12547902 51 44.26 +46 28 31.3          21.1 GUEW007H01
     K16V05V  C2016 11 15.14061002 51 41.12 +46 28 09.2          20.4 GUEW007H01
     K16V05V  C2016 11 15.14568702 51 40.09 +46 28 01.6          20.6 GUEW007H01
 
Observer details:
695 Kitt Peak.  Observer T. H. Bressi.  2.3-m f/9 reflector + CCD.
G96 Mt. Lemmon Survey.  Observer R. G. Matheny.  Measurers E. J. Christensen,
    D. C. Fuls, A. R. Gibbs, A. D. Grauer, J. A. Johnson, R. A. Kowalski,
    S. M. Larson, G. J. Leonard, R. G. Matheny, R. L. Seaman, F. C. Shelly.
    1.5-m reflector + 10K CCD.
H01 Magdalena Ridge Observatory, Socorro.  Observers W. H. Ryan, E. V. Ryan,
    E. G . Ryan.  Measurer W. H. Ryan.  2.4-m f/8.9 reflector + CCD.
K51 Osservatorio del Celado, Castello Tesino.  Observers G. Favero, R. Furgoni.
    Measurer R. Furgoni.  0.80-m f/4 reflector + CCD.
 
Orbital elements:
2016 VV5                                            PHA, Earth MOID = 0.0334 AU
Epoch 2017 Feb. 16.0 TT = JDT 2457800.5                 MPC
M 100.18883              (2000.0)            P               Q
n   0.57134627     Peri.  292.39613     +0.62120718     +0.78201059
a   1.4383672      Node    16.31948     -0.63632619     +0.54106290
e   0.4944756      Incl.   10.37563     -0.45737361     +0.30937094
P   1.73           H   21.9           G   0.15           U   8
Residuals in seconds of arc
161111 G96  0.6-  0.3+    161111 695  0.2-  0.0     161113 H01  0.0   0.0
161111 G96  0.3+  0.2+    161112 H01  0.1+  0.0     161113 H01  0.2-  0.0
161111 G96  0.4-  0.3+    161112 H01  0.0   0.2-    161113 H01  0.2-  0.0
161111 G96  0.4-  0.3-    161112 H01  0.1+  0.2-    161115 H01  0.0   0.1+
161111 G96  0.3-  0.4+    161112 H01  0.0   0.3-    161115 H01  0.0   0.0
161111 G96  0.9+  1.5-    161112 K51  0.6+  0.2+    161115 H01  0.0   0.1-
161111 G96  0.1-  0.5+    161112 K51  0.2+  0.0     161115 H01  0.2+  0.3-
161111 G96  0.3+  0.7-    161112 K51  0.4-  0.0
161111 695  0.1+  0.1+    161113 H01  0.1-  0.0

Ephemeris:
2016 VV5                 a,e,i = 1.44, 0.49, 10                  q = 0.7271
Date    TT    R. A. (2000) Decl.     Delta      r     Elong.  Phase     V
2016 10 19    07 08 29.3 +47 05 11   0.1219  1.0280   101.9    71.4    19.9
...
2016 11 03    03 57 17.9 +51 30 26   0.1977  1.1502   139.9    33.8    20.1
...
2016 11 11    03 07 41.5 +48 16 09   0.2535  1.2146   149.1    24.7    20.5
...
2016 11 17    02 45 59.3 +45 40 52   0.3010  1.2620   151.8    21.7    20.9
2016 11 18    02 43 16.2 +45 15 55   0.3094  1.2698   151.9    21.5    20.9
2016 11 19    02 40 46.0 +44 51 21   0.3179  1.2776   151.9    21.3    21.0
...
2016 11 25    02 29 34.3 +42 33 08   0.3718  1.3237   150.6    21.5    21.4
...
2016 12 03    02 22 23.1 +39 56 20   0.4510  1.3836   146.2    23.3    22.0
...
2016 12 18    02 23 40.3 +36 25 12   0.6203  1.4900   135.3    27.7    23.0

A. U. Tomatic                (C) Copyright 2016 MPC           M.P.E.C. 2016-W07




More information about the Iaude mailing list